EUTELSAT KONNECT

Last updated on Wed Apr 23 2025 00:02:43 GMT+0000 (Coordinated Universal Time)

1 45027U 20005B 25112.31900042 .00000052 00000+0 00000+0 0 9990 2 45027 0.0636 84.9167 0000635 187.8481 59.9246 1.00270416 20100
UTC large
Height (km)
Speed (km/s)
/
Latitude / Longitude
Inclination (degrees)
Orbital Period (minutes)
Azimuth
Elevation
Range (km)
Doppler Factor

Next 0 passes for location: London (51.5072 / 0.1276)

Sorry there are no passes over London.